Location: Kosice
(0.0000°N, 21.2500°E)
Time: 05:51:53
(UTC+01:00)

Daily predictions for brighter satellites

Satellite Brightness Start Highest point End
(mag) Time Altitude Azimuth Time Altitude Azimuth Time Altitude Azimuth
ARIANE 5 R/B 4.5 02:59:26 71° WSW 03:01:36 80° S 09:02:52 10° E
BLOCK DM-SL R/B 4.4 03:30:22 72° W 03:31:28 86° S 04:08:05 10° E
BLOCK DM-SL R/B 4.4 03:30:22 72° W 03:31:29 86° S 04:08:05 10° E
BLOCK DM-SL R/B 4.4 03:30:21 72° W 03:31:29 86° S 04:08:05 10° E
Ariane H10+ 4.3 03:30:19 72° W 03:31:33 86° N 03:37:18 10° E
Cosmos 2322 Rocket 3.7 03:29:37 10° SSE 03:34:37 33° ESE 03:39:38 10° NE
Cosmos 1934 Rocket 4.3 03:29:46 10° S 03:35:58 63° E 03:42:11 10° NNE
ATLAS 3B R/B 4.1 03:41:32 24° SSW 03:41:32 24° SSW 03:44:16 10° S
ARIANE 44P R/B 4.1 03:44:01 41° NNE 03:44:01 41° NNE 03:46:31 10° ENE
NOSS 3-2 (A) 4.0 03:44:31 68° W 03:45:05 70° WSW 03:53:20 10° SSE
Milstar 3 3.6 03:45:56 43° NW 03:49:59 70° NNE 03:57:31 10° ESE
Atlas Centaur 2 1.7 04:03:36 67° SE 04:03:36 67° SE 04:07:29 10° ENE
ARIANE 5 R/B 2.8 04:05:47 36° E 04:05:47 36° E 04:07:05 10° E
ISS -2.0 04:06:56 32° ESE 04:06:56 32° ESE 04:09:37 10° ENE
ARIANE 5 R/B 2.9 04:08:29 50° NNE 04:08:29 50° NNE 04:10:33 10° ENE
Cosmos 1869 Rocket 4.5 04:15:01 10° N 04:19:19 49° E 04:23:39 10° SSE
SL-16 R/B 2.0 04:14:19 10° SSW 04:19:57 73° WNW 04:25:35 10° N
Delta 2 Rocket 4.3 04:19:43 36° WSW 04:22:51 71° NNW 04:31:07 10° NE
Cosmos 967 Rocket 4.4 04:21:01 10° SSW 04:27:16 70° WNW 04:33:35 10° NNE
Cosmos 1825 3.7 04:33:37 22° SW 04:33:37 22° SW 04:35:20 10° SSW
CZ-2C R/B 2.8 04:28:40 10° NNE 04:33:49 70° ESE 04:38:58 10° S
Cosmos 2242 Rocket 3.5 04:32:35 10° S 04:37:07 75° W 04:41:39 10° N
ARIANE 5 DEB (SYLDA) 3.6 04:38:17 18° ESE 04:38:17 18° ESE 04:38:55 10° E
Cosmos 1441 Rocket 3.1 04:33:54 10° SSW 04:37:48 66° W 04:41:44 10° N
CZ-3 R/B 4.5 04:30:52 10° NW 04:38:38 13° NNW 04:43:20 10° N
Aureole 1 Rocket 4.2 04:33:37 10° N 04:38:44 48° ENE 04:42:38 10° SSE
Cosmos 1862 3.4 04:38:28 10° N 04:42:28 80° E 04:46:30 10° S
ARIANE 5 R/B 3.6 04:37:14 21° W 04:43:22 68° S 04:47:16 10° ESE
Cosmos 1605 Rocket 4.2 04:37:51 10° SSW 04:43:42 43° W 04:49:27 10° NNW
Cosmos 2227 Rocket 2.2 04:38:46 11° NNW 04:44:02 57° WSW 04:49:35 10° S
Meteor 1-28 Rocket 3.1 04:43:01 10° S 04:46:49 67° W 04:50:34 10° NNW
NOAA 6 4.2 04:42:18 10° N 04:47:10 46° WNW 04:52:03 10° SSW
Feng Yun 1-1 Rocket 4.4 04:41:51 10° N 04:47:25 55° WNW 04:53:08 10° SSW
Cosmos 2100 Rocket 4.4 04:42:46 10° S 04:48:57 67° E 04:55:02 10° N
USA 215 3.4 04:47:13 10° SE 04:53:47 81° NE 05:00:21 10° NNW
PAYLOAD A 4.4 04:51:40 10° N 04:56:17 39° WNW 05:01:05 10° SW
CZ-2C R/B 4.3 04:52:06 10° SSE 04:56:49 62° ENE 05:01:28 10° N
SJ-12 4.1 04:52:54 10° NNE 04:56:59 76° ESE 05:01:05 10° S
Cosmos 2297 Rocket 2.4 04:52:22 10° NNW 04:57:47 49° WSW 05:03:13 10° S
ARIANE 5 DEB (SYLDA) 4.5 04:45:20 17° W 04:58:00 79° N 05:02:21 10° E
CENTAUR R/B 3.2 04:52:27 10° NNW 05:00:53 68° WSW 05:08:57 10° SSE
Spelda 3.8 04:59:43 18° WSW 05:01:13 49° S 05:05:12 10° ESE
IDEFIX/ARIANE 42P 3.2 04:57:38 10° NNW 05:02:12 32° WNW 05:06:47 10° SW
Radarsat Rocket 4.4 04:57:10 10° N 05:03:09 49° WNW 05:09:56 10° SSW
ARIANE 5 R/B 4.0 05:01:53 11° WSW 05:07:13 62° S 06:07:16 10° E
Cosmos 1862 Rocket 4.2 05:04:43 10° SSW 05:08:33 31° W 05:12:23 10° NNW
ARIANE 44LP R/B 3.0 05:05:30 12° W 05:11:46 59° N 05:14:08 10° ENE
Cosmos 839 Rocket 4.3 05:06:30 10° SSW 05:12:37 78° ESE 05:19:27 10° NNE
Cosmos 1461 3.9 05:10:44 10° WSW 05:13:58 24° WNW 05:17:20 10° NNW
Cosmos 1606 2.7 05:10:51 10° SSW 05:14:41 62° W 05:18:28 10° N
Cosmos 405 3.7 05:11:23 10° N 05:14:54 58° E 05:18:26 10° SSE
Cosmos 2061 Rocket 4.0 05:09:26 10° S 05:15:44 88° W 05:21:55 10° N
COSMO-SKYMED 1 2.7 05:11:47 10° SSE 05:16:07 79° ENE 05:20:26 10° N
Cosmos 1459 Rocket 4.0 05:11:04 10° S 05:17:10 69° W 05:23:19 10° N
Cosmos 2173 Rocket 4.0 05:11:38 10° S 05:17:54 69° W 05:24:04 10° N
Cosmos 2016 Rocket 4.3 05:12:06 10° S 05:18:18 77° E 05:24:35 10° N
Cosmos 2322 Rocket 3.5 05:14:54 10° WSW 05:18:23 17° WNW 05:21:52 10° NW
Cosmos 1802 Rocket 4.1 05:12:34 10° S 05:19:01 83° W 05:25:25 10° N
Ariane H10 3.4 05:19:04 10° WNW 05:22:22 47° N 05:33:24 10° E
CSL-04 Rocket 4.4 05:18:15 10° NNE 05:23:30 59° ESE 05:28:50 10° S
Lacrosse 4 Rocket 1.6 05:21:06 10° SSW 05:25:14 76° ESE 05:29:17 10° NNE
Cosmos 2360 Rocket 2.5 05:22:13 10° SW 05:27:33 43° WNW 05:32:53 10° N
EPKM 4.1 05:23:13 10° W 05:29:38 28° SW 05:32:01 10° SSE
ARIANE 5 R/B 2.7 05:28:35 10° W 05:38:29 71° N 05:40:58 10° E
